Aérodrome :
LOGIN :

S'inscrire | Disclaimer

   EN    FR    IT 

 










Légende :    VFR   VFR Marginal   IFR   IFR Intensif   IFR Très Intensif
Visi : 
Plafond : 
>= 8 km
>= 3000ft
5 à 8 km
1000 à 3000 ft
1500m à 5 km
500 à 1000 ft
800 à 1500m
200 à 500 ft
< 800m
< 200 ft
Symboles :   Orages  Brouillard  Fortes neiges  Fortes précipitations  Vent > 20 kt
SIGMETs :   Divers  Orages  Givrage  Turbulence  Onde Orograph.  Cendres Volcan.







- Altitude de l'aérodrome : 512 ft
- Code IATA : URO
- Voir les cartes d'approche


LFOP - Rouen Vallée de Seine

DERNIER METAR :
  • 150300Z AUTO 13008KT CAVOK M03/M06 Q1022

METARs EXPIRÉS :
  • 150230Z AUTO 13008KT CAVOK M04/M06 Q1022
  • 150200Z AUTO 13007KT CAVOK M04/M06 Q1022
  • 150130Z AUTO 13004KT CAVOK M04/M06 Q1022
  • 150100Z AUTO 12006KT 9000 NSC M04/M06 Q1022
  • 150030Z AUTO 12006KT 9000 NSC M04/M06 Q1023

TAF TAF LFOP
Valide du 14 à 18h jusqu'au 15 à 18h UTC


141700Z 1418/1518 VRB03KT 9999 SCT030
BECMG 1505/1508 14013KT
BECMG 1513/1515 4000 RA OVC008
PROB30 1513/1518 FZRA
ATIS : +33 2 35 80 80 34
Météo : +33 2 32 86 52 80
Pas de NOTAMs connus pour ce terrain.



MET'MAP, la Météo Aéronautique d'un coup d'oeil ! - Copyright ORBIFLY Décembre 2007 - Disclaimer

ORBIFLY MET'MAP TEAM :

Programmation & Développement : Alexandra Zaïnal
Conception & Développement : Baudouin d'Aumeries
Co-Programmation & Développement : Marc-Olivier Méhu
Soutien technique & logistique : Manuel Goepfert

Contact : metmap@orbifly.com




SOURCES & CREDITS :

   NOAA